Regional Weather Roundup
Issued by NWS

Home | Current Version | Previous Version | Graphics & Text | Print | Product List | Glossary On
Versions: 1 2 3 4 5 6 7 8 9 10 11 12 13 14 15 16 17 18 19 20 21 22 23 24 25 26 27
000
ASUS45 KTFX 040210
RWRMT
MONTANA REGIONAL WEATHER ROUNDUP
NATIONAL WEATHER SERVICE GREAT FALLS MT
700 PM MST SAT DEC 03 2016

NOTE: "FAIR" INDICATES FEW OR NO CLOUDS BELOW 12000 FEET WITH NO
SIGNIFICANT WEATHER AND/OR OBSTRUCTIONS TO VISIBILITY.

MTZ001>007-043-040300-
WEST OF THE DIVIDE

CITY           SKY/WX    TMP DP  RH WIND       PRES   REMARKS
KALISPELL      MOCLDY    34  27  75 S6        30.00F WCI  29
MISSOULA       CLOUDY    32  31  96 SE3       30.07F
BUTTE          PTCLDY    30  15  53 SW9       30.01R WCI  22
MULLAN PASS    LGT SNOW  24  22  91 CALM      29.96F FOG
ANACONDA         N/A     34  16  47 SW6       30.02S WCI  29
DEER LODGE       N/A     30  25  80 NE6       30.02F WCI  24
EUREKA           N/A     37  23  56 SE5       29.97F
HAMILTON         N/A     37  21  52 S12       30.07F WCI  30
LIBBY            N/A     36  28  75 CALM      29.99F
PLAINS           N/A     41  28  60 S6        30.05F
RONAN            N/A     35  29  79 CALM      30.08F
$$

MTZ008-052>055-040300-
SOUTHWEST MONTANA

CITY           SKY/WX    TMP DP  RH WIND       PRES   REMARKS
BOZEMAN        CLOUDY    36  19  50 SW9       30.02R WCI  29
DILLON         CLOUDY    28  15  58 SW16      30.04F WCI  16
W YELLOWSTONE  CLOUDY    18  18 100 SW15      30.09S WCI   3
ENNIS          CLOUDY    27  16  63 S14       30.10S WCI  15
THREE FORKS      N/A     37  37 100 CALM      30.01R
$$

MTZ009-010-012-014-046-048-049-054-040300-
EAST SLOPES AND CENTRAL MONTANA

CITY           SKY/WX    TMP DP  RH WIND       PRES   REMARKS
CUT BANK       MOCLDY    30  19  63 W18       29.86F WCI  18
GREAT FALLS    CLEAR     28  18  66 SW10      29.92R WCI  19
MALMSTROM AFB  PTCLDY    33  20  59 SW14G21   29.92R WCI  23
HELENA         CLOUDY    38  20  48 W8        30.00R
AUGUSTA        MOCLDY    34  14  44 W18G26    29.88F WCI  23
BOWMANS CRNR   MOCLDY    30  19  62 S13       29.89F WCI  20
CHOTEAU          N/A     32  16  51 W5        29.91F
CONRAD           N/A     32  24  72 SW7       29.90F WCI  26
FAIRFIELD      MOCLDY    34  16  48 SW17      29.88F WCI  23
POWER            N/A     24  16  71 SW9       29.89F WCI  14
RAYNESFORD     MOCLDY    35  19  53 W18G28    29.90F WCI  24
ULM            MOCLDY    33  21  61 W10       29.93S WCI  25
$$

MTZ011-013-016-021-045-047-050-051-040300-
NORTH CENTRAL MONTANA

CITY           SKY/WX    TMP DP  RH WIND       PRES   REMARKS
HAVRE          CLEAR     27  23  85 SW8       29.86F WCI  19
LEWISTOWN      MOCLDY    30  21  69 W12       29.89F WCI  20
N BAR RANCH    MOCLDY    32  21  64 W15G24    29.90S WCI  22
CHINOOK          N/A     34  27  75 SW7       29.85F WCI  28
DENTON         MOCLDY    32  21  63 W14G24    29.86S WCI  22
GEYSER         MOCLDY    30  20  66 W10       29.89F WCI  21
GRASS RANGE    LGT RAIN  34  24  68 W15       29.85F WCI  24
JUDITH GAP       N/A     32  14  47 W22G30    29.88F WCI  19
ROY            MOCLDY    35  18  50 MISG      29.86F
STANFORD       MOCLDY    32  17  55 W14       29.89S WCI  22
WINIFRED       MOCLDY    34  18  50 MISG      29.87F
$$

MTZ017>020-022>027-061-062-040300-
NORTHEAST MONTANA

CITY           SKY/WX    TMP DP  RH WIND       PRES   REMARKS
GLASGOW        CLEAR     32  27  81 W17       29.80S WCI  21
JORDAN           N/A     29  21  72 W3        29.84S
SIDNEY         MOCLDY    36  32  85 W12       29.78R WCI  28
WOLF POINT     CLEAR     35  30  82 W13       29.79R WCI  26
PLENTYWOOD       N/A     32  30  93 NW10      29.72S WCI  24
POPLAR           N/A     34  32  93 W9        29.78S WCI  26
SCOBEY           N/A     33  26  76 W10       29.74  WCI  25
$$

MTZ028>42-056>058-040300-
SOUTHCENTRAL AND SOUTHEAST MONTANA

CITY           SKY/WX    TMP DP  RH WIND       PRES   REMARKS
BAKER          CLOUDY    34  28  79 W13       29.84R WCI  25
BILLINGS       PTCLDY    36  23  59 W16       29.94F WCI  26
LIVINGSTON     CLOUDY    36  16  44 SW15G25   29.96R WCI  27
MILES CITY     PTCLDY    36  21  54 W12       29.86S WCI  28
BIG TIMBER     CLOUDY    34  23  64 W12       29.97S WCI  25
EKALAKA          N/A     34  24  67 W12       29.84  WCI  25
FORSYTH          N/A     37  19  48 W6        29.88F
HARLOWTON        N/A     30  17  59 W18G25    29.91F WCI  18
LAUREL           N/A     34  20  57 SW8       29.94R WCI  27
ROUNDUP          N/A     34  17  50 W3        29.83F
$$

REGIONAL REPORTS...DAKOTAS

CITY           SKY/WX    TMP DP  RH WIND       PRES   REMARKS
WILLISTON      FLURRIES  31  29  92 SW6       29.75S WCI  25
MINOT          LGT SNOW  27  25  92 S8        29.75F FOG     WCI  19
DICKINSON      MOCLDY    28  22  78 W15       29.75S WCI  16
BEACH          CLOUDY    32  32 100 W15       29.82S WCI  22
CROSBY         CLOUDY    32  32 100 W10       29.73S WCI  24
TIOGA          CLOUDY    32  32 100 W12       29.73S WCI  23
WATFORD CITY   FLURRIES  32  32 100 W12       29.76S WCI  23
BISMARCK       LGT SNOW  25  24  96 SE5       29.83F FOG
GRAND FORKS    FLURRIES  31  27  85 SE14      29.96F WCI  21
FARGO          CLOUDY    33  29  85 SE21G28   29.97F WCI  21
BUFFALO SD       N/A     33  25  72 W15       29.78R WCI  23
RAPID CITY     CLOUDY    31  21  66 W7        29.90S WCI  24
$$

REGIONAL REPORTS...WYOMING/IDAHO/WASHINGTON

CITY           SKY/WX    TMP DP  RH WIND       PRES   REMARKS
GILLETTE       CLOUDY    33  21  61 W9        29.94R WCI  25
SHERIDAN       CLEAR     30  16  56 CALM      29.93S
BUFFALO WY     MOCLDY    34   9  35 VRB6      29.94R WCI  29
CODY           CLEAR     32  11  41 W10G20    29.97S WCI  24
YELLOWSTONE LA   N/A     16  13  88 CALM      30.05S
IDAHO FALLS    CLOUDY    26  21  81 N3        30.18R
SALMON         CLOUDY    32  21  64 S6        30.09S WCI  26
BOISE          CLEAR     36  28  73 S3        30.22S
SPOKANE        CLOUDY    39  33  79 SW15      30.07F WCI  31
$$

REGIONAL REPORTS...ALBERTA

CITY           SKY/WX    TMP DP  RH WIND       PRES   REMARKS
EDMONTON       CLEAR     30  19  64 W7        29.67F WCI  23
CALGARY        MOCLDY    32  12  43 W5        29.72S
LETHBRIDGE     MOCLDY    32  18  55 SW15      29.80F WCI  22
MEDICINE HAT   CLEAR     23  21  93 SW7       29.79F WCI  15
WATERTON GATE    N/A     32  18  55 SW22G33     N/A  WCI  19
CARDSTON         N/A     34  16  47 W16G22      N/A  WCI  23
MILK RIVER       N/A     32  21  64 W18         N/A  WCI  20
$$

REGIONAL REPORTS...SASKATCHEWAN

CITY           SKY/WX    TMP DP  RH WIND       PRES   REMARKS
SWIFT CURRENT  CLOUDY    32  30  93 NW13      29.73S WCI  22
REGINA         CLOUDY    23  23 100 NW17      29.71R WCI   9
SASKATOON      CLOUDY    27  23  86 W6        29.73F WCI  20
VAL MARIE        N/A     25  23  93 W10         N/A  WCI  15
ROCKGLEN         N/A     30  28  93 NW16G23     N/A  WCI  19
ASSINIBOIA       N/A     27  19  74 SW8         N/A  WCI  18
$$




USA.gov is the U.S. government's official web portal to all federal, state and local government web resources and services.